Regional Weather Roundup
Issued by NWS Upton, NY

Current Version | Previous Version | Text Only | Print | Product List | Glossary On
Versions: 1 2 3 4 5 6 7 8 9 10 11 12 13 14 15 16 17 18 19 20 21 22 23 24 25 26 27 28 29 30 31 32 33 34 35 36 37 38 39 40 41 42 43 44 45 46 47 48 49 50
607
ASUS41 KOKX 030504
RWROKX

REGIONAL WEATHER ROUNDUP
NATIONAL WEATHER SERVICE NEW YORK NY
100 AM EDT TUE MAY 03 2016

NOTE: "FAIR" INDICATES FEW OR NO CLOUDS BELOW 12,000 FEET WITH NO
SIGNIFICANT WEATHER AND/OR OBSTRUCTIONS TO VISIBILITY.

NYZ071-072-176-178-NJZ106-104-030600-
NEW YORK CITY METRO AREA


CITY           SKY/WX    TMP DP  RH WIND       PRES   REMARKS
CENTRAL PARK   LGT RAIN  55  53  93 CALM      29.95F FOG
LAGUARDIA APRT LGT RAIN  55  51  86 E6        29.91F
KENNEDY INTL   LGT RAIN  52  51  97 SE3       29.94F
NEWARK/LIBERTY RAIN      54  54 100 CALM      29.94F FOG
BRNX BOT. GARD   N/A     54  52  94 CALM      29.93F
TETERBORO      RAIN      55  51  86 NW3       29.92F
$$

NYZ177-179-078>081-030600-
LONG ISLAND NEW YORK

CITY           SKY/WX    TMP DP  RH WIND       PRES   REMARKS
FARMINGDALE    LGT RAIN  52  50  93 S5        29.94F
ISLIP          LGT RAIN  52  50  93 CALM      29.92F
SHIRLEY        CLOUDY    51  49  92 CALM      29.94F
RIVERHEAD        N/A     48  46  93 CALM      29.94S
WESTHAMPTON    CLOUDY    43  43 100 CALM      29.96S
EAST HAMPTON   FAIR      45  44  96 CALM      29.94S
MONTAUK POINT    N/A     49  48  97 CALM      29.95F
$$

NYZ052-065-067-030600-
HUDSON VALLEY

CITY           SKY/WX    TMP DP  RH WIND       PRES   REMARKS
WHITE PLAINS   DRIZZLE   52  51  97 CALM      29.93R
NEWBURGH       LGT RAIN  52  52 100 E7        29.94F FOG
MONTGOMERY     LGT RAIN  51  50  96 CALM      29.93S FOG
POUGHKEEPSIE   RAIN      52  49  89 CALM      29.93F FOG
ALBANY         DRIZZLE   49  46  90 NW3       29.95S
$$

NJZ001-105-106-008-010-013-015-019>022-104-030600-
NEW JERSEY

CITY           SKY/WX    TMP DP  RH WIND       PRES   REMARKS
NEWARK/LIBERTY RAIN      54  54 100 CALM      29.94F FOG
TETERBORO      RAIN      55  51  86 NW3       29.92F
CALDWELL       LGT RAIN  54  52  93 CALM      29.94R FOG
MORRISTOWN     RAIN      54  52  94 N3        29.93S
SOMERVILLE     RAIN      54  53  97 CALM      29.92R FOG
SUSSEX         LGT RAIN  52  50  93 CALM      29.95R FOG
ANDOVER          N/A     52  51  97 CALM      29.93S
TRENTON        RAIN      56  54  93 E8        29.90F FOG
MILLVILLE      HVY RAIN  56  55  97 E10       29.87F FOG
ATLANTIC CITY  HVY RAIN  55  54  96 E8        29.94R FOG
WRIGHTSTOWN    RAIN      55  55 100 E5        29.90F FOG
TOMS RIVER     CLOUDY    54  52  94 N5        29.93F
BELMAR         HVY RAIN  53  52  96 N6        29.93F FOG
$$

PAZ047>061-062-071-030600-
EASTERN PENNSYLVANIA

CITY           SKY/WX    TMP DP  RH WIND       PRES   REMARKS
PHILADELPHIA   LGT RAIN  59  55  87 E9        29.89F FOG
ALLENTOWN      LGT RAIN  57  54  89 NE6       29.89F FOG
SCRANTON       LGT RAIN  50  47  89 VRB3      29.93F
$$

CTZ002-004>006-009-010-012-RIZ004-006-007-MAZ004-011-015-030600-
SOUTHERN NEW ENGLAND
 IN CT

CITY           SKY/WX    TMP DP  RH WIND       PRES   REMARKS
BRADLEY INTL   CLOUDY    48  47  96 W3        29.93F
HARTFORD       CLOUDY    51  48  89 CALM      29.95S FOG
DANBURY        CLOUDY    49  47  93 SW5       29.94F
WTRBRY/OXFORD    N/A     48  45  87 NE3       29.94F
BRIDGEPORT     CLOUDY    52  50  93 CALM      29.94F FOG
MERIDEN        CLOUDY    48  46  93 CALM      29.93F FOG
NEW HAVEN      CLOUDY    49  48  97 S3        29.93F FOG
CHESTER        CLOUDY    50  50 100 CALM      29.93F
GROTON         CLOUDY    47  47 100 CALM      29.93F FOG
WILLIMANTIC    CLOUDY    48  46  93 CALM      29.94F FOG

 IN RI

CITY           SKY/WX    TMP DP  RH WIND       PRES   REMARKS
PROVIDENCE     CLOUDY    50  46  86 NE3       29.95S
BLOCK ISLAND   CLOUDY    49  48  97 NW5       29.94F
WESTERLY       CLOUDY    47  44  90 CALM      29.95F

 IN MA

CITY           SKY/WX    TMP DP  RH WIND       PRES   REMARKS
BOSTON         CLOUDY    47  43  86 N3        29.94F
WORCESTER      CLOUDY    45  44  97 CALM      29.93S
WESTFIELD      CLOUDY    47  45  93 NE3       29.93F
PROVINCETOWN   CLOUDY    45  43  93 N7        29.93F
NANTUCKET      CLOUDY    49  45  86 N9        29.93F
$$

ANZ330-335-338-340-345-350-353-355-030600-
COASTAL MARINE OBSERVATIONS


STATION/POSITION TIME  SKY/WX   TEMP    WIND        PRES    VSBY  WAVE
                                AIR SEA DIR/SP/G                  HT/PER
                 (UTC)          (F)     (DEG/KT/KT) (MB)    (MI)  (FT/S)
NY HARB ENTRANCE 0350            51 51  250/  2/  4 1013.5          3/ 9
20S FIRE ISLAND  0350            50 49   CALM  /  2 1013.9          3/ 9
GREAT SOUTH BAY  0400            51 56  200/  6/  6   N/A
23 SSW MONTAUK P 0450            47 47  300/  2/  4 1013.1          4/ 7
15 E BARNEGAT LI 0422               52                N/A           3/10
HUDSON CANYON    0350            50 49              1013.8          4/ 9
KINGS POINT      0400            54 54              1013.8
EXECUTION ROCKS  NOT AVBL
CENTRAL LI SOUND 0400            50     200/  4/  6   N/A           0
EASTERN LI SOUND 0400            49 48  250/  4/  6   N/A
ROBBINS REEF     0400            53     170/  9/ 10 1013.2
$$


>>>>>>>>>>>>>>>>>>>>>>>>>>>> KEY <<<<<<<<<<<<<<<<<<<<<<<<<<<
>                                                          <
>     SKY/WX - SKY CONDITION/PRESENT WEATHER               <
>     TMP    - TEMPERATURE IN FAHRENHEIT                   <
>     DP     - DEWPOINT IN FAHRENHEIT                      <
>     RH     - RELATIVE HUMIDITY IN PERCENT                <
>     WIND   - DIRECTION AND SPEED IN MPH                  <
>     PRES   - MEAN SEA LEVEL PRESSURE IN INCHES OF HG     <
>     WCI    - WIND CHILL INDEX                            <
>     VSB    - VISIBILITY IN MILES                         <
>     HX     - HEAT INDEX                                  <
>     TC     - TEMPERATURE IN CELSIUS                      <
>     VRB    - VARIABLE WIND DIRECTION                     <
>                                                          <
>>>>>>>>>>>>>>>>>>>>>>>>>>>> KEY <<<<<<<<<<<<<<<<<<<<<<<<<<<






USA.gov is the U.S. government's official web portal to all federal, state and local government web resources and services.